Ocean City, MD

7:43 AM EDT on May 25, 2018 (GMT -0400)
Ocean City Municipal

Weather History for KOXB - October, 2012

Change the Weather History Date:

Monday, October 22, 2012

  Actual Average (KSBY) Record (KSBY)
Temperature  
Mean Temperature 56 °F -  
Max Temperature 69 °F 66 °F 84 °F (1920)
Min Temperature 45 °F 43 °F 25 °F (1907)
Degree Days  
Heating Degree Days 8    
Growing Degree Days 6 (Base 50)    
Moisture  
Dew Point 44 °F    
Average Humidity 68    
Maximum Humidity 90    
Minimum Humidity 40    
Precipitation  
Precipitation 0.00 in - - ()
Sea Level Pressure  
Sea Level Pressure 30.13 in    
Wind  
Wind Speed 5 mph (WNW)    
Max Wind Speed 9 mph    
Max Gust Speed 16 mph    
Visibility 10 miles    
Events      
Averages and records for this station are not official NWS values.
T = Trace of Precipitation, MM = Missing Value Source: NWS Daily Summary

Daily Weather History Graph

Daily Weather History Graph

Search for Another Location

Airport or City:

Astronomy

Oct. 22, 2012 Rise Set
Actual Time 7:16 AM EDT 6:12 PM EDT
Civil Twilight 6:49 AM EDT 6:39 PM EDT
Nautical Twilight 6:18 AM EDT 7:10 PM EDT
Astronomical Twilight 5:48 AM EDT 7:40 PM EDT
Moon 2:13 PM EDT (10/22) 12:06 AM EDT (10/22)
Length of Visible Light 11h 49m
Length of Day
10h 55m
First Quarter, 56% of the Moon is Illuminated
Oct 22
First Quarter
Oct 29
Full
Nov 6
Last Quarter
Nov 13
New
Nov 20
First Quarter

Hourly Weather History & Observations

Time (EDT) Temp. Windchill Dew Point Humidity Pressure Visibility Wind Dir Wind Speed Gust Speed Precip Events Conditions
12:53 AM 48.0 °F - 43.0 °F 83% 30.12 in 10.0 mi WNW 4.6 mph - N/A   Clear
1:53 AM 48.0 °F - 43.0 °F 83% 30.12 in 10.0 mi WNW 5.8 mph - N/A   Clear
2:53 AM 48.0 °F - 43.0 °F 83% 30.12 in 10.0 mi NW 3.5 mph - N/A   Clear
3:53 AM 46.0 °F 43.1 °F 42.1 °F 86% 30.11 in 10.0 mi NW 5.8 mph - N/A   Clear
4:53 AM 46.9 °F - 42.1 °F 83% 30.12 in 10.0 mi NW 5.8 mph - N/A   Clear
5:53 AM 46.0 °F 43.1 °F 42.1 °F 86% 30.13 in 10.0 mi NW 5.8 mph - N/A   Clear
6:53 AM 45.0 °F 42.6 °F 42.1 °F 90% 30.14 in 10.0 mi NW 4.6 mph - N/A   Clear
9:53 AM 57.9 °F - 45.0 °F 62% 30.19 in 10.0 mi Variable 4.6 mph - N/A   Clear
10:53 AM 62.1 °F - 44.1 °F 52% 30.17 in 10.0 mi NNW 6.9 mph - N/A   Clear
11:53 AM 64.9 °F - 43.0 °F 45% 30.17 in 10.0 mi Variable 3.5 mph - N/A   Clear
12:53 PM 66.0 °F - 44.1 °F 45% 30.15 in 10.0 mi West 8.1 mph - N/A   Clear
1:53 PM 68.0 °F - 43.0 °F 40% 30.13 in 10.0 mi WNW 9.2 mph - N/A   Clear
2:53 PM 68.0 °F - 44.1 °F 42% 30.11 in 10.0 mi Variable 4.6 mph - N/A   Clear
3:53 PM 68.0 °F - 44.1 °F 42% 30.11 in 10.0 mi WNW 5.8 mph 16.1 mph N/A   Clear
4:53 PM 66.0 °F - 42.1 °F 42% 30.10 in 10.0 mi WNW 8.1 mph - N/A   Clear
5:53 PM 63.0 °F - 43.0 °F 48% 30.11 in 10.0 mi WNW 3.5 mph - N/A   Clear
6:53 PM 53.1 °F - 46.0 °F 77% 30.12 in 10.0 mi Calm Calm - N/A   Clear
7:53 PM 54.0 °F - 46.0 °F 75% 30.14 in 10.0 mi West 3.5 mph - N/A   Clear
8:53 PM 52.0 °F - 46.9 °F 83% 30.13 in 10.0 mi WNW 4.6 mph - N/A   Clear
9:53 PM 51.1 °F - 46.0 °F 83% 30.14 in 10.0 mi Calm Calm - N/A   Clear
10:53 PM 52.0 °F - 46.9 °F 83% 30.14 in 10.0 mi West 4.6 mph - N/A   Clear
11:53 PM 52.0 °F - 46.9 °F 83% 30.13 in 10.0 mi West 4.6 mph - N/A   Clear